RH
7 7 7 7 7 6 6 6 6 6 7 7 8 9 10 11 12 12 11 11 10 10 9 8 6 4 2 10 52 54 50 39 33 27 25 25 30 26 28 25 20 21 26 47 46
8 8 9 9 9 9 9 10 11 12 12 13 13 14 14 14 13 12 10 9 8 8 8 8 7 6 7 48 51 49 42 32 29 29 27 29 30 32 30 28 26 24 30 26 10
12 13 13 13 12 12 14 14 16 16 17 16 16 15 14 12 10 8 7 6 5 4 4 4 5 6 7 30 44 45 36 33 30 26 30 35 37 38 34 30 27 26 27 40 32
15 15 15 15 16 16 18 19 19 19 18 17 16 13 10 8 34 6 5 4 4 4 4 3 4 5 30 28 27 38 37 33 33 33 33 34 39 42 40 34 32 32 30 32 43
17 18 18 19 20 20 20 21 21 20 18 15 12 9 7 6 5 5 4 4 4 4 4 4 5 14 30 29 32 30 31 33 38 38 33 35 38 42 41 43 40 39 40 38 37
21 22 22 22 22 22 23 23 21 18 14 11 8 7 6 6 6 5 5 5 5 5 4 4 4 4 4 8 27 34 38 40 46 47 46 44 44 42 5 34 39 42 41 44 45
23 23 24 26 26 26 25 23 20 15 11 8 7 6 6 6 6 6 6 5 5 5 5 4 4 4 13 24 25 34 38 39 30 27 29 31 35 42 7 34 32 34 37 38 40
24 25 28 30 29 27 24 20 14 10 8 7 7 6 6 7 7 7 6 6 6 5 6 5 5 5 5 23 19 21 20 16 10 10 14 19 20 21 32 37 32 28 30 35 34
26 27 30 31 29 25 20 14 10 8 8 7 7 7 11 10 8 8 8 8 8 8 9 11 11 18 43 38 31 21 16 12 10 9 10 18 20 19 25 35 39 34 27 28 32
26 27 30 30 26 20 13 10 8 8 8 8 9 22 17 14 9 9 8 7 10 14 80 73 68 56 44 34 28 19 15 14 13 11 11 12 14 17 24 32 37 35 32 28 32
28 30 29 26 20 14 10 8 9 10 8 8 8 8 10 11 11 17 10 15 58 68 66 57 56 38 34 35 34 31 29 25 22 19 18 16 16 17 23 29 33 36 33 32 32
30 29 25 21 15 10 9 8 8 8 8 9 10 12 13 12 37 59 20 57 61 57 54 50 52 54 58 48 47 42 38 33 28 25 24 22 21 20 20 18 20 28 36 37 36
29 26 22 17 12 9 8 8 7 6 32 14 14 13 12 11 17 62 29 46 54 60 53 47 46 46 57 48 47 46 43 38 35 32 33 33 31 28 27 24 22 23 24 31 40
29 25 19 12 10 8 8 8 7 7 65 55 50 40 40 24 72 60 78 57 68 52 49 52 46 54 48 44 43 46 43 47 42 37 35 29 26 21 19 16 15 16 18 25 28
30 23 14 10 8 8 8 7 8 10 94 33 47 14 43 48 45 55 55 74 67 58 61 61 53 45 43 42 55 50 48 47 46 43 40 35 31 26 23 22 20 20 20 18 20
30 18 11 8 8 8 8 7 9 32 68 52 39 47 44 51 52 49 53 59 72 78 67 58 55 54 47 58 50 56 52 50 44 43 53 39 32 26 24 21 19 17 16 24 36
26 13 9 8 9 8 8 8 40 64 16 47 43 47 44 57 51 54 53 72 88 89 65 52 76 70 70 67 58 80 76 64 52 61 65 39 31 23 22 36 28 28 24 19 18
19 11 8 8 9 8 7 10 77 22 49 28 49 43 52 65 58 63 63 54 94 92 79 62 57 83 80 49 53 52 56 85 86 60 43 29 25 40 68 67 67 72 46 45 40
13 9 8 9 9 7 8 19 30 48 20 44 44 40 38 47 58 57 53 60 95 99 94 71 64 56 49 52 58 50 62 73 73 59 60 33 38 58 71 62 60 67 79 66 63
10 8 8 10 7 8 10 14 45 13 16 45 52 53 48 46 56 51 50 70 80 82 78 78 74 57 44 73 44 72 64 83 78 73 66 32 34 68 64 83 54 77 91 80 78
10 10 11 8 7 10 11 14 14 12 14 52 64 61 57 57 57 51 48 51 84 71 65 66 88 67 56 47 55 57 68 93 85 74 88 66 37 40 95 58 57 80 90 70 69
9 10 11 7 14 11 13 15 12 28 17 47 49 77 69 63 56 53 53 53 83 67 67 88 89 74 60 49 43 46 94 95 77 68 68 60 49 40 43 49 73 85 100 72 85
9 7 8 7 13 11 13 14 14 26 69 82 79 71 70 69 67 60 61 62 68 68 78 88 81 84 51 38 80 92 92 92 92 85 74 69 53 44 61 89 91 91 96 81 90
10 8 9 9 12 24 58 62 44 19 24 58 70 78 76 71 69 72 65 60 69 81 81 79 84 91 78 64 74 73 66 64 76 78 64 60 55 44 94 90 94 97 94 93 96
12 10 10 12 11 11 16 37 75 71 30 52 84 79 72 76 78 73 65 66 67 65 72 76 96 87 88 71 53 47 46 47 51 58 71 54 51 44 96 97 80 96 94 95 97
11 9 11 11 7 16 58 60 77 73 50 76 84 78 79 82 82 88 82 80 76 75 71 78 85 82 81 68 62 63 54 47 40 38 41 41 44 94 77 97 92 97 97 98 96
13 13 9 9 11 41 56 77 77 63 62 67 90 90 88 86 89 93 93 92 88 88 82 80 90 93 84 68 67 64 47 46 38 37 46 72 93 79 94 88 96 97 96 96 95
Wind_Speed
5 6 6 6 7 6 7 6 6 6 7 9 9 9 9 9 9 9 8 10 10 11 12 14 14 14 17 21 18 16 23 28 27 26 25 21 14 12 13 15 18 13 16 18 25
7 7 7 7 7 7 7 7 6 7 8 11 11 11 10 9 10 11 11 11 9 8 8 10 13 15 17 16 17 21 24 29 23 23 23 25 27 20 18 16 14 18 18 21 22
7 7 7 8 8 9 8 9 7 7 9 11 11 12 11 10 11 9 6 5 7 10 11 12 15 16 18 16 19 23 34 25 24 22 23 27 27 24 25 24 19 15 16 17 21
8 8 8 9 9 9 9 9 8 8 9 8 9 10 10 8 5 6 10 13 12 11 11 12 14 15 14 16 17 29 31 30 28 26 27 28 27 29 25 26 24 22 18 19 13
9 9 9 9 10 10 10 9 8 8 8 8 8 8 8 9 9 12 11 12 13 14 14 14 14 17 14 14 17 29 29 29 29 29 28 29 35 34 36 29 27 24 25 23 23
10 10 10 11 11 11 10 9 7 7 8 8 7 7 8 7 10 11 13 14 14 15 18 19 19 21 25 23 23 22 24 28 25 26 28 32 32 29 42 30 33 32 32 31 29
12 12 11 11 12 11 11 11 10 10 9 9 9 10 10 12 11 12 12 16 18 19 20 24 22 23 19 21 20 23 31 31 35 31 34 29 36 42 44 31 31 32 33 33 33
13 12 11 10 11 10 10 10 10 9 9 10 11 12 11 8 10 15 19 21 21 20 20 21 20 21 23 23 28 29 30 39 37 29 30 31 48 37 36 34 33 33 35 35 33
13 11 9 9 10 10 9 9 9 9 10 11 11 10 9 14 18 19 18 19 21 23 22 21 18 16 14 19 23 25 33 35 38 29 28 29 41 32 28 32 32 33 32 35 34
12 9 7 7 8 9 8 8 8 9 9 9 5 7 12 12 15 18 21 21 21 21 11 11 9 11 14 16 23 25 28 30 33 29 28 36 44 38 32 31 32 28 26 35 33
10 7 6 6 7 7 6 7 7 8 9 7 8 7 10 11 16 19 21 20 15 12 11 11 13 15 17 17 21 23 26 31 33 33 31 35 39 39 36 36 34 30 31 32 33
9 7 7 6 5 5 5 6 5 5 6 7 6 6 8 14 12 12 17 13 14 13 14 14 17 14 13 14 16 18 23 28 31 29 30 35 41 43 40 40 40 40 34 33 32
9 7 7 5 4 4 4 4 5 7 1 4 4 7 13 17 17 9 17 15 13 14 13 17 18 20 13 15 18 21 24 26 28 29 32 33 42 43 41 39 40 40 40 40 36
9 8 6 5 3 3 4 4 6 6 4 3 5 8 12 14 7 16 10 15 12 15 16 15 10 14 16 19 19 23 21 24 27 28 31 25 29 36 34 34 34 38 44 46 43
8 6 5 4 3 3 3 5 5 3 1 1 4 11 10 11 12 2 15 12 13 16 15 20 20 19 20 19 12 19 18 22 26 30 31 31 27 31 28 33 37 38 34 37 39
8 5 4 4 3 3 4 4 3 4 2 2 3 6 12 9 9 10 13 13 16 14 14 18 17 16 16 16 15 19 19 23 29 31 22 31 31 35 33 32 31 30 32 37 34
8 5 3 3 3 3 4 3 4 4 2 1 5 10 11 8 7 10 12 10 11 14 12 18 15 11 8 12 17 16 17 12 17 10 12 22 23 25 16 16 19 22 21 25 33
8 5 3 3 3 3 3 4 3 2 2 6 7 9 4 7 7 12 10 11 9 10 16 13 16 3 5 16 19 19 19 10 8 11 18 24 16 8 12 13 10 8 18 20 19
4 4 3 3 3 1 2 5 2 2 4 5 7 4 5 8 9 10 13 7 6 10 9 14 13 19 20 13 12 16 21 20 20 24 18 21 16 12 16 21 21 19 20 18 22
2 2 3 3 3 1 3 4 3 4 3 4 2 3 5 9 10 9 10 7 6 8 10 14 29 16 14 14 18 12 17 14 6 6 9 17 17 12 18 25 29 29 26 23 24
3 2 2 3 3 2 4 4 4 2 3 1 3 5 7 10 8 11 9 9 6 9 12 17 15 24 23 18 18 19 17 6 9 11 6 8 14 23 17 33 31 30 31 26 32
4 3 4 4 3 4 4 4 3 3 4 3 5 6 6 8 12 12 11 9 7 13 19 9 13 24 26 24 22 20 6 8 7 14 22 22 27 17 31 33 29 31 30 28 23
5 5 5 5 5 6 4 5 4 3 3 4 5 6 7 9 10 7 10 10 14 15 11 14 12 26 23 14 7 4 14 18 16 16 21 18 20 29 31 28 29 32 31 27 22
7 5 6 7 8 5 5 6 6 6 6 7 7 8 8 11 11 13 16 18 16 16 19 23 24 23 25 27 31 30 31 28 18 19 26 31 34 31 30 35 34 30 31 24 21
8 7 7 5 9 7 7 6 7 5 6 6 4 7 9 13 14 19 16 17 22 20 18 12 17 19 24 27 29 32 34 31 27 29 27 36 33 32 25 34 33 29 26 19 16
10 10 9 9 9 8 9 8 9 8 7 5 9 10 12 15 17 26 23 22 23 14 10 11 19 17 31 26 28 32 31 31 28 28 29 32 34 22 28 31 25 21 19 20 21
10 11 11 10 9 9 10 8 8 9 10 9 10 10 14 17 19 20 21 21 21 21 18 19 22 22 33 24 24 27 26 22 22 23 23 20 17 23 26 30 26 15 18 18 20
Wind_Direction
270 275 279 272 280 280 284 282 286 285 285 280 280 281 291 293 291 287 289 287 288 283 280 278 272 267 268 257 241 246 245 249 249 255 262 258 271 268 253 246 233 237 237 242 232
276 286 291 290 295 295 296 295 292 297 294 292 296 294 293 291 290 286 289 285 280 273 269 272 274 274 261 257 241 236 246 250 255 257 263 261 258 255 253 263 251 232 250 251 251
295 297 297 304 294 292 295 297 298 293 287 283 286 286 291 295 293 285 275 269 285 284 277 268 267 267 267 252 246 246 250 258 257 256 264 260 259 257 258 250 238 238 244 264 256
298 297 290 285 287 294 295 293 296 289 280 280 274 277 281 289 223 277 287 290 285 282 273 268 268 263 267 261 260 254 257 260 263 264 258 258 267 259 253 252 245 242 247 237 246
291 287 286 288 289 290 295 301 303 299 298 294 293 291 289 279 283 286 286 287 288 287 281 273 263 260 263 259 259 251 262 264 262 261 259 260 255 261 257 253 251 245 241 239 243
286 289 292 294 296 301 306 310 317 314 313 312 316 315 313 290 294 288 292 294 295 296 293 284 274 269 266 263 259 261 263 263 262 259 257 255 259 263 254 258 256 252 249 248 247
297 301 304 306 310 318 325 328 333 335 332 329 331 326 315 307 296 294 294 303 304 298 291 285 280 275 260 270 272 269 270 272 266 267 265 263 262 250 260 264 257 251 255 250 247
304 306 309 315 318 325 330 332 334 334 334 333 329 317 309 300 304 309 319 322 320 317 310 300 292 279 269 267 268 272 273 270 267 265 264 254 259 258 264 264 262 258 250 252 248
304 309 316 322 323 329 333 335 338 340 339 340 329 336 330 321 331 332 335 333 328 324 318 311 306 293 272 271 277 266 262 268 271 260 260 245 260 261 259 260 263 258 250 249 251
304 312 321 328 329 335 337 335 338 339 338 336 344 340 322 324 328 333 333 331 331 334 341 346 320 296 283 264 266 280 278 272 270 268 261 255 258 261 256 255 255 256 252 243 241
306 317 332 342 342 337 332 333 330 335 337 330 322 318 323 336 335 335 333 337 348 340 312 299 298 281 285 278 275 276 275 272 269 267 270 262 261 258 254 254 252 252 250 247 244
311 325 336 344 341 330 324 342 341 311 315 328 346 357 354 344 355 339 337 335 334 320 311 305 285 293 292 286 279 274 275 273 275 273 270 268 266 263 258 255 254 252 249 246 243
310 325 337 336 340 333 348 343 343 343 351 357 37 354 339 336 328 324 326 325 317 313 304 291 284 287 285 290 286 277 274 279 279 280 273 273 271 267 262 257 251 248 248 244 241
310 320 326 325 337 349 349 358 344 344 130 21 358 331 336 340 344 321 329 326 314 305 303 295 290 280 284 283 283 280 278 281 282 279 274 271 280 269 268 261 254 254 250 247 242
303 311 316 326 339 352 4 360 356 5 191 305 319 324 342 335 326 20 322 330 308 301 297 283 282 276 277 289 277 284 285 278 276 275 279 271 266 270 269 263 259 256 249 252 251
301 303 314 323 344 4 14 11 32 111 108 311 309 314 337 325 325 315 326 324 314 301 297 290 286 265 264 280 281 273 285 286 276 261 257 263 261 271 269 268 265 261 256 245 244
302 301 322 333 349 3 21 26 74 77 272 251 287 318 331 320 332 334 339 329 354 340 329 315 308 253 263 285 285 288 306 301 289 238 243 268 261 263 290 306 276 265 264 259 251
301 306 328 346 341 353 40 71 102 150 181 297 318 326 325 343 327 335 333 323 324 334 318 323 314 312 333 310 298 296 301 285 299 319 309 303 272 7 18 348 335 319 254 259 253
291 300 316 324 321 354 99 103 114 148 247 320 342 329 321 333 329 328 328 314 336 348 351 316 283 291 307 297 304 296 295 301 293 289 274 277 282 305 349 357 341 313 311 251 240
280 283 296 303 298 244 148 146 192 212 290 349 342 305 308 314 310 321 324 299 295 324 332 309 301 299 301 297 293 277 299 305 278 285 300 290 308 337 350 346 346 342 321 274 256
264 243 261 281 270 227 182 181 208 243 302 289 267 287 293 304 298 307 297 302 285 319 317 308 286 294 301 292 295 303 295 301 309 277 301 320 312 337 353 341 337 331 327 303 283
259 227 246 235 242 216 195 196 241 249 301 287 295 280 283 291 296 289 285 279 293 306 312 304 307 296 295 293 274 277 273 8 347 327 311 292 293 310 333 333 332 326 320 310 296
254 249 225 228 222 203 230 236 241 243 232 252 265 274 286 295 304 288 287 286 287 295 293 310 296 307 302 305 205 285 306 318 318 306 286 297 291 312 322 328 327 323 321 320 305
253 243 237 237 202 227 211 230 236 249 254 260 266 278 290 292 281 280 290 296 293 293 291 290 282 267 271 283 292 298 294 296 290 283 288 286 294 306 318 327 329 332 329 319 313
255 250 237 229 242 238 234 220 216 247 279 272 281 271 292 291 286 287 289 289 294 295 292 276 280 277 278 277 283 284 287 288 279 275 265 280 290 301 321 321 326 333 332 331 323
254 253 249 246 249 235 240 227 219 228 246 241 257 281 285 285 286 293 296 294 292 293 279 277 278 285 279 285 280 280 280 275 268 266 265 273 279 299 321 314 322 329 337 356 353
256 259 258 254 243 237 238 233 230 232 267 256 261 278 292 296 284 283 281 280 272 273 275 278 275 278 277 291 292 282 283 274 258 251 266 276 302 318 311 321 320 351 343 351 351